Time,TemperatureF,DewpointF,PressureIn,WindDirection,WindDirectionDegrees,WindSpeedMPH,WindSpeedGustMPH,Humidity,HourlyPrecipIn,Conditions,Clouds,dailyrainin,SoftwareType,DateUTC
2013-01-10 00:01:00,44.1,38.0,30.07,NE,45,0.4,0.7,79,0.00,,,0.00,WUHU216HW,2013-01-10 08:01:00,
2013-01-10 00:06:00,43.9,37.8,30.07,NE,45,0.0,0.4,79,0.00,,,0.00,WUHU216HW,2013-01-10 08:06:00,
2013-01-10 00:11:00,43.7,37.6,30.07,NE,45,0.0,0.0,79,0.00,,,0.00,WUHU216HW,2013-01-10 08:11:00,
2013-01-10 00:16:00,43.7,37.6,30.07,NE,45,0.0,0.0,79,0.00,,,0.00,WUHU216HW,2013-01-10 08:16:00,
2013-01-10 00:21:00,43.6,37.4,30.07,SSE,158,1.1,1.1,79,0.00,,,0.00,WUHU216HW,2013-01-10 08:21:00,
2013-01-10 00:26:00,43.4,37.3,30.07,ESE,113,1.1,1.1,79,0.00,,,0.00,WUHU216HW,2013-01-10 08:26:00,
2013-01-10 00:31:00,43.2,37.1,30.07,ESE,113,0.0,1.1,79,0.00,,,0.00,WUHU216HW,2013-01-10 08:31:00,
2013-01-10 00:36:00,43.2,37.1,30.07,ESE,113,1.1,1.8,79,0.00,,,0.00,WUHU216HW,2013-01-10 08:36:00,
2013-01-10 00:41:00,43.0,37.3,30.07,ESE,113,0.0,1.8,80,0.00,,,0.00,WUHU216HW,2013-01-10 08:41:00,
2013-01-10 00:46:00,42.8,37.1,30.07,ESE,113,0.0,0.4,80,0.00,,,0.00,WUHU216HW,2013-01-10 08:46:00,
2013-01-10 00:51:00,42.8,37.1,30.07,ESE,113,0.0,0.4,80,0.00,,,0.00,WUHU216HW,2013-01-10 08:51:00,
2013-01-10 00:56:00,42.7,36.9,30.07,ESE,113,0.0,0.2,80,0.00,,,0.00,WUHU216HW,2013-01-10 08:56:00,
2013-01-10 01:01:00,42.5,36.7,30.07,ESE,113,1.6,1.6,80,0.00,,,0.00,WUHU216HW,2013-01-10 09:01:00,
2013-01-10 01:06:00,42.5,36.7,30.07,SE,135,0.4,1.6,80,0.00,,,0.00,WUHU216HW,2013-01-10 09:06:00,
2013-01-10 01:11:00,42.3,36.8,30.08,NNW,338,0.0,1.6,81,0.00,,,0.00,WUHU216HW,2013-01-10 09:11:00,
2013-01-10 01:16:00,42.1,36.6,30.08,SE,135,1.1,1.1,81,0.00,,,0.00,WUHU216HW,2013-01-10 09:16:00,
2013-01-10 01:21:00,42.1,36.6,30.08,SE,135,0.0,1.1,81,0.00,,,0.00,WUHU216HW,2013-01-10 09:21:00,
2013-01-10 01:26:00,41.9,36.5,30.08,ENE,68,0.2,0.9,81,0.00,,,0.00,WUHU216HW,2013-01-10 09:26:00,
2013-01-10 01:31:00,41.9,36.5,30.08,ENE,68,0.0,0.9,81,0.00,,,0.00,WUHU216HW,2013-01-10 09:31:00,
2013-01-10 01:36:00,41.8,36.3,30.08,ESE,113,0.7,1.1,81,0.00,,,0.00,WUHU216HW,2013-01-10 09:36:00,
2013-01-10 01:41:00,41.8,36.3,30.08,ESE,113,0.4,1.1,81,0.00,,,0.00,WUHU216HW,2013-01-10 09:41:00,
2013-01-10 01:46:00,41.6,36.1,30.08,ESE,113,0.2,0.7,81,0.00,,,0.00,WUHU216HW,2013-01-10 09:46:00,
2013-01-10 01:51:00,41.6,36.1,30.08,ESE,113,0.0,0.4,81,0.00,,,0.00,WUHU216HW,2013-01-10 09:51:00,
2013-01-10 01:56:00,41.4,35.9,30.08,ESE,113,0.4,0.7,81,0.00,,,0.00,WUHU216HW,2013-01-10 09:56:00,
2013-01-10 02:01:00,41.4,35.9,30.08,NNW,338,0.4,0.9,81,0.00,,,0.00,WUHU216HW,2013-01-10 10:01:00,
2013-01-10 02:06:00,41.2,35.7,30.08,ENE,68,0.9,1.1,81,0.00,,,0.00,WUHU216HW,2013-01-10 10:06:00,
2013-01-10 02:11:00,41.2,35.7,30.08,ESE,113,0.9,1.1,81,0.00,,,0.00,WUHU216HW,2013-01-10 10:11:00,
2013-01-10 02:16:00,41.2,36.1,30.08,ENE,68,0.4,0.9,82,0.00,,,0.00,WUHU216HW,2013-01-10 10:16:00,
2013-01-10 02:21:00,41.0,35.9,30.08,East,90,0.7,0.7,82,0.00,,,0.00,WUHU216HW,2013-01-10 10:21:00,
2013-01-10 02:26:00,41.0,35.9,30.08,East,90,0.0,1.1,82,0.00,,,0.00,WUHU216HW,2013-01-10 10:26:00,
2013-01-10 02:31:00,41.0,35.9,30.08,East,90,0.0,1.1,82,0.00,,,0.00,WUHU216HW,2013-01-10 10:31:00,
2013-01-10 02:36:00,41.0,35.9,30.08,ESE,113,0.4,0.4,82,0.00,,,0.00,WUHU216HW,2013-01-10 10:36:00,
2013-01-10 02:41:00,40.9,35.7,30.08,North,0,0.4,1.1,82,0.00,,,0.00,WUHU216HW,2013-01-10 10:41:00,
2013-01-10 02:46:00,40.7,35.6,30.08,North,0,0.0,1.1,82,0.00,,,0.00,WUHU216HW,2013-01-10 10:46:00,
2013-01-10 02:51:00,40.7,35.6,30.08,North,0,0.2,0.7,82,0.00,,,0.00,WUHU216HW,2013-01-10 10:51:00,
2013-01-10 02:56:00,40.7,35.6,30.08,ENE,68,0.9,0.9,82,0.00,,,0.00,WUHU216HW,2013-01-10 10:56:00,
2013-01-10 03:01:00,40.5,35.4,30.08,NE,45,0.0,0.9,82,0.00,,,0.00,WUHU216HW,2013-01-10 11:01:00,
2013-01-10 03:06:00,40.5,35.4,30.08,NW,315,0.7,1.8,82,0.00,,,0.00,WUHU216HW,2013-01-10 11:06:00,
2013-01-10 03:11:00,40.3,35.2,30.08,ESE,113,1.1,1.8,82,0.00,,,0.00,WUHU216HW,2013-01-10 11:11:00,
2013-01-10 03:16:00,40.1,35.1,30.08,West,270,0.0,1.1,82,0.00,,,0.00,WUHU216HW,2013-01-10 11:16:00,
2013-01-10 03:21:00,40.1,34.7,30.08,West,270,0.0,0.2,81,0.00,,,0.00,WUHU216HW,2013-01-10 11:21:00,
2013-01-10 03:26:00,40.1,34.7,30.08,NNW,338,1.1,1.1,81,0.00,,,0.00,WUHU216HW,2013-01-10 11:26:00,
2013-01-10 03:31:00,40.0,34.6,30.08,NNW,338,0.7,1.1,81,0.00,,,0.00,WUHU216HW,2013-01-10 11:31:00,
2013-01-10 03:36:00,40.0,34.9,30.08,NNW,338,0.4,1.1,82,0.00,,,0.00,WUHU216HW,2013-01-10 11:36:00,
2013-01-10 03:42:00,40.0,34.9,30.07,ESE,113,0.9,1.8,82,0.00,,,0.00,WUHU216HW,2013-01-10 11:42:00,
2013-01-10 03:47:00,39.8,34.8,30.07,North,0,0.7,1.8,82,0.00,,,0.00,WUHU216HW,2013-01-10 11:47:00,
2013-01-10 03:52:00,39.8,34.8,30.07,NNW,338,0.0,1.1,82,0.00,,,0.00,WUHU216HW,2013-01-10 11:52:00,
2013-01-10 03:57:00,39.8,34.8,30.07,ENE,68,1.1,1.1,82,0.00,,,0.00,WUHU216HW,2013-01-10 11:57:00,
2013-01-10 04:02:00,39.8,34.8,30.07,NE,45,1.3,2.9,82,0.00,,,0.00,WUHU216HW,2013-01-10 12:02:00,
2013-01-10 04:07:00,39.8,34.8,30.07,NNE,23,0.0,2.9,82,0.00,,,0.00,WUHU216HW,2013-01-10 12:07:00,
2013-01-10 04:12:00,39.8,34.8,30.07,NE,45,0.0,0.4,82,0.00,,,0.00,WUHU216HW,2013-01-10 12:12:00,
2013-01-10 04:17:00,39.6,34.6,30.07,NNE,23,1.1,1.1,82,0.00,,,0.00,WUHU216HW,2013-01-10 12:17:00,
2013-01-10 04:22:00,39.6,34.6,30.07,North,0,0.4,1.1,82,0.00,,,0.00,WUHU216HW,2013-01-10 12:22:00,
2013-01-10 04:27:00,39.6,34.6,30.06,North,0,0.0,0.4,82,0.00,,,0.00,WUHU216HW,2013-01-10 12:27:00,
2013-01-10 04:32:00,39.6,34.6,30.06,West,270,0.4,1.3,82,0.00,,,0.00,WUHU216HW,2013-01-10 12:32:00,
2013-01-10 04:37:00,39.6,34.6,30.06,East,90,0.0,1.3,82,0.00,,,0.00,WUHU216HW,2013-01-10 12:37:00,
2013-01-10 04:42:00,39.6,34.6,30.06,ESE,113,0.0,0.9,82,0.00,,,0.00,WUHU216HW,2013-01-10 12:42:00,
2013-01-10 04:47:00,39.6,34.6,30.06,NE,45,0.7,0.9,82,0.00,,,0.00,WUHU216HW,2013-01-10 12:47:00,
2013-01-10 04:52:00,39.4,34.7,30.06,ENE,68,1.1,1.1,83,0.00,,,0.00,WUHU216HW,2013-01-10 12:52:00,
2013-01-10 04:57:00,39.4,34.7,30.06,ENE,68,0.0,1.1,83,0.00,,,0.00,WUHU216HW,2013-01-10 12:57:00,
2013-01-10 05:02:00,39.4,34.7,30.06,ENE,68,0.0,1.1,83,0.00,,,0.00,WUHU216HW,2013-01-10 13:02:00,
2013-01-10 05:07:00,39.4,34.7,30.06,ENE,68,0.4,0.7,83,0.00,,,0.00,WUHU216HW,2013-01-10 13:07:00,
2013-01-10 05:12:00,39.4,34.7,30.06,North,0,0.9,0.9,83,0.00,,,0.00,WUHU216HW,2013-01-10 13:12:00,
2013-01-10 05:17:00,39.2,34.6,30.06,North,0,0.0,0.9,83,0.00,,,0.00,WUHU216HW,2013-01-10 13:17:00,
2013-01-10 05:22:00,39.2,34.6,30.06,NNE,23,0.7,0.9,83,0.00,,,0.00,WUHU216HW,2013-01-10 13:22:00,
2013-01-10 05:27:00,39.2,34.6,30.06,NNE,23,0.0,0.7,83,0.00,,,0.00,WUHU216HW,2013-01-10 13:27:00,
2013-01-10 05:32:00,39.1,34.4,30.07,NNE,23,0.0,0.2,83,0.00,,,0.00,WUHU216HW,2013-01-10 13:32:00,
2013-01-10 05:37:00,39.1,34.4,30.07,North,0,0.0,0.2,83,0.00,,,0.00,WUHU216HW,2013-01-10 13:37:00,
2013-01-10 05:42:00,38.9,34.2,30.07,North,0,0.2,0.4,83,0.00,,,0.00,WUHU216HW,2013-01-10 13:42:00,
2013-01-10 05:47:00,38.9,34.2,30.07,North,0,0.4,0.4,83,0.00,,,0.00,WUHU216HW,2013-01-10 13:47:00,
2013-01-10 05:52:00,38.9,34.2,30.07,North,0,0.0,0.4,83,0.00,,,0.00,WUHU216HW,2013-01-10 13:52:00,
2013-01-10 05:57:00,38.7,34.0,30.06,NE,45,0.4,0.4,83,0.00,,,0.00,WUHU216HW,2013-01-10 13:57:00,
2013-01-10 06:02:00,38.7,34.0,30.07,ENE,68,1.6,1.8,83,0.00,,,0.00,WUHU216HW,2013-01-10 14:02:00,
2013-01-10 06:07:00,38.7,34.0,30.07,ESE,113,1.1,1.8,83,0.00,,,0.00,WUHU216HW,2013-01-10 14:07:00,
2013-01-10 06:12:00,38.5,34.1,30.07,ESE,113,0.0,1.3,84,0.00,,,0.00,WUHU216HW,2013-01-10 14:12:00,
2013-01-10 06:17:00,38.5,34.1,30.07,ESE,113,0.0,1.1,84,0.00,,,0.00,WUHU216HW,2013-01-10 14:17:00,
2013-01-10 06:22:00,38.5,34.1,30.07,ESE,113,0.0,0.4,84,0.00,,,0.00,WUHU216HW,2013-01-10 14:22:00,
2013-01-10 06:27:00,38.5,34.1,30.07,North,0,0.9,1.1,84,0.00,,,0.00,WUHU216HW,2013-01-10 14:27:00,
2013-01-10 06:32:00,38.5,34.1,30.07,ESE,113,1.1,1.8,84,0.00,,,0.00,WUHU216HW,2013-01-10 14:32:00,
2013-01-10 06:37:00,38.5,34.1,30.08,NNW,338,0.0,1.8,84,0.00,,,0.00,WUHU216HW,2013-01-10 14:37:00,
2013-01-10 06:42:00,38.5,34.1,30.08,North,0,0.0,0.4,84,0.00,,,0.00,WUHU216HW,2013-01-10 14:42:00,
2013-01-10 06:47:00,38.3,33.9,30.08,SE,135,0.2,0.4,84,0.00,,,0.00,WUHU216HW,2013-01-10 14:47:00,
2013-01-10 06:52:00,38.3,33.9,30.08,NE,45,0.9,0.9,84,0.00,,,0.00,WUHU216HW,2013-01-10 14:52:00,
2013-01-10 06:57:00,38.5,34.1,30.08,SSE,158,1.1,1.1,84,0.00,,,0.00,WUHU216HW,2013-01-10 14:57:00,
2013-01-10 07:02:00,38.3,33.9,30.08,ESE,113,1.1,1.3,84,0.00,,,0.00,WUHU216HW,2013-01-10 15:02:00,
2013-01-10 07:07:00,38.5,34.1,30.08,NE,45,0.2,1.3,84,0.00,,,0.00,WUHU216HW,2013-01-10 15:07:00,
2013-01-10 07:12:00,38.3,33.9,30.08,ENE,68,0.4,0.9,84,0.00,,,0.00,WUHU216HW,2013-01-10 15:12:00,
2013-01-10 07:17:00,38.3,33.9,30.09,NNW,338,0.4,1.1,84,0.00,,,0.00,WUHU216HW,2013-01-10 15:17:00,
2013-01-10 07:22:00,38.3,33.9,30.09,East,90,0.7,1.1,84,0.00,,,0.00,WUHU216HW,2013-01-10 15:22:00,
2013-01-10 07:27:00,38.2,33.8,30.09,ENE,68,0.0,0.9,84,0.00,,,0.00,WUHU216HW,2013-01-10 15:27:00,
2013-01-10 07:32:00,38.3,33.9,30.09,North,0,0.0,1.1,84,0.00,,,0.00,WUHU216HW,2013-01-10 15:32:00,
2013-01-10 07:37:00,38.3,33.9,30.09,NNE,23,0.4,1.1,84,0.00,,,0.00,WUHU216HW,2013-01-10 15:37:00,
2013-01-10 07:42:00,38.2,33.8,30.10,NNE,23,0.2,0.7,84,0.00,,,0.00,WUHU216HW,2013-01-10 15:42:00,
2013-01-10 07:47:00,38.3,33.9,30.10,NNE,23,0.0,0.7,84,0.00,,,0.00,WUHU216HW,2013-01-10 15:47:00,
2013-01-10 07:52:00,38.2,34.0,30.10,NE,45,0.2,1.6,85,0.00,,,0.00,WUHU216HW,2013-01-10 15:52:00,
2013-01-10 07:57:00,38.2,34.0,30.10,ENE,68,0.0,1.6,85,0.00,,,0.00,WUHU216HW,2013-01-10 15:57:00,
2013-01-10 08:02:00,38.3,34.2,30.10,ENE,68,0.0,1.6,85,0.00,,,0.00,WUHU216HW,2013-01-10 16:02:00,
2013-01-10 08:07:00,38.3,34.2,30.10,ENE,68,0.4,0.7,85,0.00,,,0.00,WUHU216HW,2013-01-10 16:07:00,
2013-01-10 08:12:00,38.3,34.2,30.10,ENE,68,0.0,0.7,85,0.00,,,0.00,WUHU216HW,2013-01-10 16:12:00,
2013-01-10 08:17:00,38.3,34.2,30.11,NNE,23,0.0,0.7,85,0.00,,,0.00,WUHU216HW,2013-01-10 16:17:00,
2013-01-10 08:22:00,38.5,34.4,30.11,NE,45,0.0,0.7,85,0.00,,,0.00,WUHU216HW,2013-01-10 16:22:00,
2013-01-10 08:27:00,38.3,34.2,30.11,NE,45,0.4,0.7,85,0.00,,,0.00,WUHU216HW,2013-01-10 16:27:00,
2013-01-10 08:32:00,38.5,34.4,30.11,North,0,0.0,0.9,85,0.00,,,0.00,WUHU216HW,2013-01-10 16:32:00,
2013-01-10 08:37:00,38.7,34.6,30.11,North,0,0.0,0.9,85,0.00,,,0.00,WUHU216HW,2013-01-10 16:37:00,
2013-01-10 08:42:00,39.2,35.4,30.11,NNW,338,0.0,0.4,86,0.00,,,0.00,WUHU216HW,2013-01-10 16:42:00,
2013-01-10 08:47:00,39.8,35.7,30.11,NNW,338,0.0,0.4,85,0.00,,,0.00,WUHU216HW,2013-01-10 16:47:00,
2013-01-10 08:52:00,39.8,35.7,30.11,NNW,338,0.4,1.1,85,0.00,,,0.00,WUHU216HW,2013-01-10 16:52:00,
2013-01-10 08:57:00,40.0,35.8,30.11,NW,315,0.4,1.1,85,0.00,,,0.00,WUHU216HW,2013-01-10 16:57:00,
2013-01-10 09:02:00,40.0,35.8,30.11,NW,315,0.4,0.9,85,0.00,,,0.00,WUHU216HW,2013-01-10 17:02:00,
2013-01-10 09:07:00,40.0,35.8,30.11,NW,315,0.0,0.4,85,0.00,,,0.00,WUHU216HW,2013-01-10 17:07:00,
2013-01-10 09:12:00,40.3,36.1,30.11,SW,225,0.7,0.7,85,0.00,,,0.00,WUHU216HW,2013-01-10 17:12:00,
2013-01-10 09:17:00,40.5,36.3,30.11,WSW,248,1.1,2.2,85,0.00,,,0.00,WUHU216HW,2013-01-10 17:17:00,
2013-01-10 09:22:00,40.7,36.5,30.11,WSW,248,0.0,3.1,85,0.00,,,0.00,WUHU216HW,2013-01-10 17:22:00,
2013-01-10 09:27:00,40.9,36.6,30.11,West,270,1.1,3.1,85,0.00,,,0.00,WUHU216HW,2013-01-10 17:27:00,
2013-01-10 09:32:00,41.8,37.3,30.11,West,270,5.4,5.4,84,0.00,,,0.00,WUHU216HW,2013-01-10 17:32:00,
2013-01-10 09:37:00,42.1,37.6,30.11,NNW,338,2.5,5.4,84,0.00,,,0.00,WUHU216HW,2013-01-10 17:37:00,
2013-01-10 09:42:00,42.7,37.5,30.12,North,0,3.1,4.7,82,0.00,,,0.00,WUHU216HW,2013-01-10 17:42:00,
2013-01-10 09:47:00,43.0,37.5,30.12,NW,315,6.5,6.5,81,0.00,,,0.00,WUHU216HW,2013-01-10 17:47:00,
2013-01-10 09:52:00,43.2,37.4,30.12,West,270,4.3,6.5,80,0.00,,,0.00,WUHU216HW,2013-01-10 17:52:00,
2013-01-10 09:57:00,43.6,37.8,30.12,NNW,338,3.1,5.1,80,0.00,,,0.00,WUHU216HW,2013-01-10 17:57:00,
2013-01-10 10:02:00,44.1,37.7,30.12,NNW,338,5.6,5.6,78,0.00,,,0.00,WUHU216HW,2013-01-10 18:02:00,
2013-01-10 10:07:00,44.3,37.8,30.12,SSW,203,3.4,5.6,78,0.00,,,0.00,WUHU216HW,2013-01-10 18:07:00,
2013-01-10 10:12:00,44.5,37.7,30.12,WNW,293,4.5,5.6,77,0.00,,,0.00,WUHU216HW,2013-01-10 18:12:00,
2013-01-10 10:17:00,44.5,37.7,30.12,West,270,5.8,6.9,77,0.00,,,0.00,WUHU216HW,2013-01-10 18:17:00,
2013-01-10 10:22:00,44.6,37.5,30.12,West,270,9.2,9.2,76,0.00,,,0.00,WUHU216HW,2013-01-10 18:22:00,
2013-01-10 10:27:00,45.0,37.2,30.12,WNW,293,1.8,9.2,74,0.00,,,0.00,WUHU216HW,2013-01-10 18:27:00,
2013-01-10 10:32:00,45.2,37.4,30.12,NNW,338,2.7,9.2,74,0.00,,,0.00,WUHU216HW,2013-01-10 18:32:00,
2013-01-10 10:37:00,45.4,37.2,30.12,WSW,248,3.6,8.5,73,0.00,,,0.00,WUHU216HW,2013-01-10 18:37:00,
2013-01-10 10:42:00,45.4,37.2,30.11,SSW,203,4.5,8.5,73,0.00,,,0.00,WUHU216HW,2013-01-10 18:42:00,
2013-01-10 10:47:00,45.7,37.3,30.11,North,0,4.5,6.7,72,0.00,,,0.00,WUHU216HW,2013-01-10 18:47:00,
2013-01-10 10:52:00,45.7,37.3,30.11,NNW,338,1.1,5.4,72,0.00,,,0.00,WUHU216HW,2013-01-10 18:52:00,
2013-01-10 10:57:00,45.9,37.5,30.12,West,270,7.6,7.6,72,0.00,,,0.00,WUHU216HW,2013-01-10 18:57:00,
2013-01-10 11:02:00,46.3,37.5,30.11,NNW,338,5.4,7.6,71,0.00,,,0.00,WUHU216HW,2013-01-10 19:02:00,
2013-01-10 11:07:00,46.3,37.1,30.11,NW,315,2.5,5.8,70,0.00,,,0.00,WUHU216HW,2013-01-10 19:07:00,
2013-01-10 11:12:00,46.4,37.6,30.11,NW,315,4.5,5.4,71,0.00,,,0.00,WUHU216HW,2013-01-10 19:12:00,
2013-01-10 11:17:00,46.4,37.6,30.11,NW,315,6.9,6.9,71,0.00,,,0.00,WUHU216HW,2013-01-10 19:17:00,
2013-01-10 11:22:00,46.8,37.6,30.10,SSE,158,2.0,6.9,70,0.00,,,0.00,WUHU216HW,2013-01-10 19:22:00,
2013-01-10 11:27:00,46.6,36.6,30.11,West,270,3.8,6.9,68,0.00,,,0.00,WUHU216HW,2013-01-10 19:27:00,
2013-01-10 11:32:00,46.8,36.5,30.11,NNW,338,6.3,7.4,67,0.00,,,0.00,WUHU216HW,2013-01-10 19:32:00,
2013-01-10 11:37:00,47.2,37.2,30.10,West,270,4.0,7.4,68,0.00,,,0.00,WUHU216HW,2013-01-10 19:37:00,
2013-01-10 11:42:00,47.2,36.4,30.10,NW,315,4.9,8.5,66,0.00,,,0.00,WUHU216HW,2013-01-10 19:42:00,
2013-01-10 11:47:00,47.5,36.7,30.09,NW,315,2.7,8.5,66,0.00,,,0.00,WUHU216HW,2013-01-10 19:47:00,
2013-01-10 11:52:00,47.7,36.9,30.09,SSW,203,2.0,5.8,66,0.00,,,0.00,WUHU216HW,2013-01-10 19:52:00,
2013-01-10 11:57:00,47.7,36.9,30.10,WNW,293,7.2,8.5,66,0.00,,,0.00,WUHU216HW,2013-01-10 19:57:00,
2013-01-10 12:02:00,47.9,36.6,30.09,West,270,5.8,8.5,65,0.00,,,0.00,WUHU216HW,2013-01-10 20:02:00,
2013-01-10 12:07:00,47.9,36.3,30.09,West,270,4.3,9.2,64,0.00,,,0.00,WUHU216HW,2013-01-10 20:07:00,
2013-01-10 12:13:00,47.9,36.3,30.08,WNW,293,3.4,9.2,64,0.00,,,0.00,WUHU216HW,2013-01-10 20:13:00,
2013-01-10 12:18:00,48.1,36.5,30.08,NW,315,4.0,7.6,64,0.00,,,0.00,WUHU216HW,2013-01-10 20:18:00,
2013-01-10 12:23:00,48.4,36.8,30.08,SW,225,4.0,7.6,64,0.00,,,0.00,WUHU216HW,2013-01-10 20:23:00,
2013-01-10 12:28:00,48.4,36.4,30.08,WSW,248,4.7,9.2,63,0.00,,,0.00,WUHU216HW,2013-01-10 20:28:00,
2013-01-10 12:33:00,48.4,36.4,30.08,SW,225,4.5,9.2,63,0.00,,,0.00,WUHU216HW,2013-01-10 20:33:00,
2013-01-10 12:38:00,48.4,36.4,30.08,West,270,5.6,5.6,63,0.00,,,0.00,WUHU216HW,2013-01-10 20:38:00,
2013-01-10 12:43:00,48.6,36.5,30.08,SSW,203,3.6,10.5,63,0.00,,,0.00,WUHU216HW,2013-01-10 20:43:00,
2013-01-10 12:48:00,48.6,36.5,30.08,WNW,293,7.2,10.5,63,0.00,,,0.00,WUHU216HW,2013-01-10 20:48:00,
2013-01-10 12:53:00,48.8,36.4,30.07,WNW,293,8.1,8.1,62,0.00,,,0.00,WUHU216HW,2013-01-10 20:53:00,
2013-01-10 12:58:00,48.8,36.4,30.07,NW,315,4.5,8.1,62,0.00,,,0.00,WUHU216HW,2013-01-10 20:58:00,
2013-01-10 13:03:00,49.0,36.9,30.07,SW,225,8.1,8.1,63,0.00,,,0.00,WUHU216HW,2013-01-10 21:03:00,
2013-01-10 13:08:00,49.1,36.3,30.07,West,270,5.1,8.1,61,0.00,,,0.00,WUHU216HW,2013-01-10 21:08:00,
2013-01-10 13:13:00,49.3,36.1,30.07,NNW,338,6.5,9.8,60,0.00,,,0.00,WUHU216HW,2013-01-10 21:13:00,
2013-01-10 13:18:00,49.3,35.2,30.07,West,270,6.9,9.8,58,0.00,,,0.00,WUHU216HW,2013-01-10 21:18:00,
2013-01-10 13:23:00,49.5,35.8,30.07,NW,315,6.9,10.3,59,0.00,,,0.00,WUHU216HW,2013-01-10 21:23:00,
2013-01-10 13:28:00,49.7,35.9,30.07,NW,315,2.5,10.3,59,0.00,,,0.00,WUHU216HW,2013-01-10 21:28:00,
2013-01-10 13:33:00,49.9,36.5,30.07,SW,225,6.5,6.9,60,0.00,,,0.00,WUHU216HW,2013-01-10 21:33:00,
2013-01-10 13:38:00,49.9,34.7,30.07,West,270,6.0,7.6,56,0.00,,,0.00,WUHU216HW,2013-01-10 21:38:00,
2013-01-10 13:43:00,49.9,34.7,30.07,NW,315,7.6,7.6,56,0.00,,,0.00,WUHU216HW,2013-01-10 21:43:00,
2013-01-10 13:48:00,50.0,35.4,30.07,West,270,3.8,7.6,57,0.00,,,0.00,WUHU216HW,2013-01-10 21:48:00,
2013-01-10 13:53:00,50.0,34.5,30.07,West,270,3.8,8.1,55,0.00,,,0.00,WUHU216HW,2013-01-10 21:53:00,
2013-01-10 13:58:00,50.0,34.9,30.07,NW,315,3.8,8.1,56,0.00,,,0.00,WUHU216HW,2013-01-10 21:58:00,
2013-01-10 14:03:00,50.2,34.2,30.07,WNW,293,10.5,10.5,54,0.00,,,0.00,WUHU216HW,2013-01-10 22:03:00,
2013-01-10 14:08:00,50.2,32.4,30.07,WNW,293,6.0,10.5,50,0.00,,,0.00,WUHU216HW,2013-01-10 22:08:00,
2013-01-10 14:13:00,50.2,32.9,30.07,NW,315,4.0,10.5,51,0.00,,,0.00,WUHU216HW,2013-01-10 22:13:00,
2013-01-10 14:18:00,50.4,33.0,30.07,NW,315,5.4,8.3,51,0.00,,,0.00,WUHU216HW,2013-01-10 22:18:00,
2013-01-10 14:23:00,50.4,33.5,30.07,West,270,6.0,7.2,52,0.00,,,0.00,WUHU216HW,2013-01-10 22:23:00,
2013-01-10 14:28:00,50.6,34.5,30.07,West,270,2.9,7.2,54,0.00,,,0.00,WUHU216HW,2013-01-10 22:28:00,
2013-01-10 14:33:00,50.8,34.7,30.07,SSE,158,5.4,5.4,54,0.00,,,0.00,WUHU216HW,2013-01-10 22:33:00,
2013-01-10 14:38:00,50.8,33.3,30.07,West,270,7.8,10.7,51,0.00,,,0.00,WUHU216HW,2013-01-10 22:38:00,
2013-01-10 14:43:00,50.8,34.2,30.07,WSW,248,3.4,10.7,53,0.00,,,0.00,WUHU216HW,2013-01-10 22:43:00,
2013-01-10 14:48:00,50.8,33.8,30.07,NW,315,5.4,7.8,52,0.00,,,0.00,WUHU216HW,2013-01-10 22:48:00,
2013-01-10 14:53:00,50.8,33.3,30.07,WNW,293,7.8,8.5,51,0.00,,,0.00,WUHU216HW,2013-01-10 22:53:00,
2013-01-10 14:58:00,50.8,33.8,30.08,West,270,4.3,9.8,52,0.00,,,0.00,WUHU216HW,2013-01-10 22:58:00,
2013-01-10 15:03:00,50.9,34.4,30.07,West,270,4.3,9.8,53,0.00,,,0.00,WUHU216HW,2013-01-10 23:03:00,
2013-01-10 15:08:00,50.9,33.9,30.08,WNW,293,9.2,9.2,52,0.00,,,0.00,WUHU216HW,2013-01-10 23:08:00,
2013-01-10 15:13:00,50.9,34.4,30.08,NW,315,11.4,11.4,53,0.00,,,0.00,WUHU216HW,2013-01-10 23:13:00,
2013-01-10 15:19:00,50.9,34.4,30.08,NW,315,9.2,11.4,53,0.00,,,0.00,WUHU216HW,2013-01-10 23:19:00,
2013-01-10 15:24:00,50.9,34.8,30.08,SW,225,4.7,9.8,54,0.00,,,0.00,WUHU216HW,2013-01-10 23:24:00,
2013-01-10 15:29:00,50.9,34.4,30.08,WNW,293,2.5,6.9,53,0.00,,,0.00,WUHU216HW,2013-01-10 23:29:00,
2013-01-10 15:34:00,50.9,34.8,30.08,NW,315,7.4,7.4,54,0.00,,,0.00,WUHU216HW,2013-01-10 23:34:00,
2013-01-10 15:39:00,51.1,35.5,30.08,WNW,293,4.3,7.4,55,0.00,,,0.00,WUHU216HW,2013-01-10 23:39:00,
2013-01-10 15:44:00,51.1,35.5,30.08,NNW,338,5.6,5.6,55,0.00,,,0.00,WUHU216HW,2013-01-10 23:44:00,
2013-01-10 15:49:00,50.9,35.3,30.08,NNE,23,2.5,5.6,55,0.00,,,0.00,WUHU216HW,2013-01-10 23:49:00,
2013-01-10 15:54:00,50.9,35.3,30.08,NNW,338,6.7,6.7,55,0.00,,,0.00,WUHU216HW,2013-01-10 23:54:00,
2013-01-10 15:59:00,50.9,35.3,30.08,NNW,338,5.4,6.7,55,0.00,,,0.00,WUHU216HW,2013-01-10 23:59:00,
2013-01-10 16:04:00,50.8,34.7,30.08,NNW,338,2.0,6.7,54,0.00,,,0.00,WUHU216HW,2013-01-11 00:04:00,
2013-01-10 16:09:00,50.8,35.1,30.08,NNW,338,3.4,5.4,55,0.00,,,0.00,WUHU216HW,2013-01-11 00:09:00,
2013-01-10 16:14:00,50.9,34.4,30.08,North,0,4.0,5.4,53,0.00,,,0.00,WUHU216HW,2013-01-11 00:14:00,
2013-01-10 16:19:00,50.9,34.8,30.08,West,270,4.0,4.0,54,0.00,,,0.00,WUHU216HW,2013-01-11 00:19:00,
2013-01-10 16:25:00,50.9,34.4,30.08,North,0,3.4,4.0,53,0.00,,,0.00,WUHU216HW,2013-01-11 00:25:00,
2013-01-10 16:30:00,50.9,34.8,30.08,NNW,338,1.3,4.0,54,0.00,,,0.00,WUHU216HW,2013-01-11 00:30:00,
2013-01-10 16:35:00,50.9,34.8,30.08,North,0,3.4,4.0,54,0.00,,,0.00,WUHU216HW,2013-01-11 00:35:00,
2013-01-10 16:40:00,50.9,34.8,30.08,NW,315,6.9,6.9,54,0.00,,,0.00,WUHU216HW,2013-01-11 00:40:00,
2013-01-10 16:45:00,50.9,34.8,30.08,WNW,293,5.6,6.9,54,0.00,,,0.00,WUHU216HW,2013-01-11 00:45:00,
2013-01-10 16:50:00,50.8,35.6,30.08,West,270,3.6,6.9,56,0.00,,,0.00,WUHU216HW,2013-01-11 00:50:00,
2013-01-10 16:55:00,50.6,35.8,30.08,West,270,1.1,6.7,57,0.00,,,0.00,WUHU216HW,2013-01-11 00:55:00,
2013-01-10 17:00:00,50.4,36.2,30.08,WSW,248,0.9,6.7,58,0.00,,,0.00,WUHU216HW,2013-01-11 01:00:00,
2013-01-10 17:05:00,50.4,36.6,30.09,WNW,293,3.6,5.4,59,0.00,,,0.00,WUHU216HW,2013-01-11 01:05:00,
2013-01-10 17:10:00,50.2,36.5,30.09,WNW,293,2.9,5.4,59,0.00,,,0.00,WUHU216HW,2013-01-11 01:10:00,
2013-01-10 17:15:00,50.0,36.7,30.09,NNW,338,3.4,4.5,60,0.00,,,0.00,WUHU216HW,2013-01-11 01:15:00,
2013-01-10 17:20:00,50.0,36.7,30.09,WNW,293,2.7,3.6,60,0.00,,,0.00,WUHU216HW,2013-01-11 01:20:00,
2013-01-10 17:25:00,49.9,37.0,30.09,NNW,338,1.1,3.4,61,0.00,,,0.00,WUHU216HW,2013-01-11 01:25:00,
2013-01-10 17:30:00,49.9,37.0,30.10,NW,315,0.7,2.7,61,0.00,,,0.00,WUHU216HW,2013-01-11 01:30:00,
2013-01-10 17:35:00,49.7,36.8,30.10,West,270,1.6,2.5,61,0.00,,,0.00,WUHU216HW,2013-01-11 01:35:00,
2013-01-10 17:40:00,49.7,37.2,30.11,WNW,293,2.5,2.5,62,0.00,,,0.00,WUHU216HW,2013-01-11 01:40:00,
2013-01-10 17:45:00,49.7,37.2,30.11,NW,315,2.2,2.5,62,0.00,,,0.00,WUHU216HW,2013-01-11 01:45:00,
2013-01-10 17:50:00,49.5,37.0,30.11,NW,315,2.2,2.2,62,0.00,,,0.00,WUHU216HW,2013-01-11 01:50:00,
2013-01-10 17:55:00,49.5,37.5,30.11,North,0,0.4,2.2,63,0.00,,,0.00,WUHU216HW,2013-01-11 01:55:00,
2013-01-10 18:00:00,49.5,37.5,30.11,WNW,293,0.7,1.3,63,0.00,,,0.00,WUHU216HW,2013-01-11 02:00:00,
2013-01-10 18:05:00,49.5,37.8,30.12,NW,315,0.0,1.1,64,0.00,,,0.00,WUHU216HW,2013-01-11 02:05:00,
2013-01-10 18:10:00,49.3,37.6,30.12,WNW,293,0.7,1.1,64,0.00,,,0.00,WUHU216HW,2013-01-11 02:10:00,
2013-01-10 18:15:00,49.3,37.6,30.12,WNW,293,0.4,1.1,64,0.00,,,0.00,WUHU216HW,2013-01-11 02:15:00,
2013-01-10 18:20:00,49.3,37.6,30.12,North,0,0.9,1.3,64,0.00,,,0.00,WUHU216HW,2013-01-11 02:20:00,
2013-01-10 18:25:00,49.1,37.4,30.12,NE,45,0.4,1.3,64,0.00,,,0.00,WUHU216HW,2013-01-11 02:25:00,
2013-01-10 18:30:00,49.0,37.3,30.12,NW,315,0.4,1.1,64,0.00,,,0.00,WUHU216HW,2013-01-11 02:30:00,
2013-01-10 18:35:00,48.6,37.4,30.13,ESE,113,0.0,1.1,65,0.00,,,0.00,WUHU216HW,2013-01-11 02:35:00,
2013-01-10 18:40:00,48.6,37.4,30.13,ESE,113,0.0,0.4,65,0.00,,,0.00,WUHU216HW,2013-01-11 02:40:00,
2013-01-10 18:45:00,48.4,37.2,30.13,West,270,0.0,0.7,65,0.00,,,0.00,WUHU216HW,2013-01-11 02:45:00,
2013-01-10 18:50:00,48.2,37.0,30.13,North,0,1.1,1.1,65,0.00,,,0.00,WUHU216HW,2013-01-11 02:50:00,
2013-01-10 18:55:00,48.2,37.0,30.13,NNW,338,1.3,1.3,65,0.00,,,0.00,WUHU216HW,2013-01-11 02:55:00,
2013-01-10 19:00:00,48.1,37.2,30.13,NNW,338,1.1,1.3,66,0.00,,,0.00,WUHU216HW,2013-01-11 03:00:00,
2013-01-10 19:05:00,47.9,37.0,30.14,North,0,0.7,1.3,66,0.00,,,0.00,WUHU216HW,2013-01-11 03:05:00,
2013-01-10 19:10:00,47.9,37.0,30.13,NNE,23,1.3,1.3,66,0.00,,,0.00,WUHU216HW,2013-01-11 03:10:00,
2013-01-10 19:15:00,47.9,37.0,30.14,NNW,338,0.0,1.3,66,0.00,,,0.00,WUHU216HW,2013-01-11 03:15:00,
2013-01-10 19:20:00,47.9,37.0,30.14,North,0,0.7,0.7,66,0.00,,,0.00,WUHU216HW,2013-01-11 03:20:00,
2013-01-10 19:25:00,47.7,36.9,30.14,North,0,1.1,1.8,66,0.00,,,0.00,WUHU216HW,2013-01-11 03:25:00,
2013-01-10 19:30:00,47.5,37.1,30.14,NW,315,1.1,2.2,67,0.00,,,0.00,WUHU216HW,2013-01-11 03:30:00,
2013-01-10 19:35:00,47.2,36.7,30.14,NNW,338,1.1,2.2,67,0.00,,,0.00,WUHU216HW,2013-01-11 03:35:00,
2013-01-10 19:40:00,47.2,36.7,30.14,West,270,0.0,2.0,67,0.00,,,0.00,WUHU216HW,2013-01-11 03:40:00,
2013-01-10 19:45:00,46.8,36.8,30.15,West,270,0.4,2.0,68,0.00,,,0.00,WUHU216HW,2013-01-11 03:45:00,
2013-01-10 19:50:00,46.8,36.8,30.15,West,270,0.0,0.4,68,0.00,,,0.00,WUHU216HW,2013-01-11 03:50:00,
2013-01-10 19:55:00,46.6,36.6,30.15,West,270,0.0,0.4,68,0.00,,,0.00,WUHU216HW,2013-01-11 03:55:00,
2013-01-10 20:00:00,46.4,36.5,30.15,SSW,203,0.2,1.1,68,0.00,,,0.00,WUHU216HW,2013-01-11 04:00:00,
2013-01-10 20:05:00,46.4,36.5,30.15,SE,135,0.9,1.1,68,0.00,,,0.00,WUHU216HW,2013-01-11 04:05:00,
2013-01-10 20:10:00,46.3,36.3,30.15,ENE,68,0.7,1.1,68,0.00,,,0.00,WUHU216HW,2013-01-11 04:10:00,
2013-01-10 20:15:00,46.1,36.1,30.15,ENE,68,0.0,1.1,68,0.00,,,0.00,WUHU216HW,2013-01-11 04:15:00,
2013-01-10 20:20:00,45.7,36.2,30.15,ENE,68,0.0,0.7,69,0.00,,,0.00,WUHU216HW,2013-01-11 04:20:00,
2013-01-10 20:25:00,45.7,36.2,30.15,East,90,0.0,1.1,69,0.00,,,0.00,WUHU216HW,2013-01-11 04:25:00,
2013-01-10 20:30:00,45.4,35.8,30.15,ESE,113,0.0,1.1,69,0.00,,,0.00,WUHU216HW,2013-01-11 04:30:00,
2013-01-10 20:35:00,45.4,36.2,30.15,ESE,113,0.0,0.0,70,0.00,,,0.00,WUHU216HW,2013-01-11 04:35:00,
2013-01-10 20:40:00,45.2,36.0,30.15,ESE,113,0.9,0.9,70,0.00,,,0.00,WUHU216HW,2013-01-11 04:40:00,
2013-01-10 20:45:00,44.8,35.6,30.16,ESE,113,0.7,1.3,70,0.00,,,0.00,WUHU216HW,2013-01-11 04:45:00,
2013-01-10 20:50:00,44.6,35.8,30.16,SE,135,0.7,1.3,71,0.00,,,0.00,WUHU216HW,2013-01-11 04:50:00,
2013-01-10 20:55:00,44.5,35.7,30.16,ESE,113,1.1,1.1,71,0.00,,,0.00,WUHU216HW,2013-01-11 04:55:00,
2013-01-10 21:03:00,44.3,35.5,30.16,ESE,113,0.4,1.1,71,0.00,,,0.00,WUHU216HW,2013-01-11 05:03:00,
2013-01-10 21:07:00,44.1,35.6,30.16,East,90,0.0,1.1,72,0.00,,,0.00,WUHU216HW,2013-01-11 05:07:00,
2013-01-10 21:12:00,43.7,35.0,30.17,NNE,23,1.1,1.1,71,0.00,,,0.00,WUHU216HW,2013-01-11 05:12:00,
2013-01-10 21:17:00,43.6,34.8,30.17,SSW,203,1.1,1.6,71,0.00,,,0.00,WUHU216HW,2013-01-11 05:17:00,
2013-01-10 21:22:00,43.6,34.8,30.16,East,90,0.4,1.6,71,0.00,,,0.00,WUHU216HW,2013-01-11 05:22:00,
2013-01-10 21:27:00,43.4,35.0,30.16,NNW,338,0.4,1.1,72,0.00,,,0.00,WUHU216HW,2013-01-11 05:27:00,
2013-01-10 21:32:00,43.2,34.8,30.17,SE,135,0.4,0.4,72,0.00,,,0.00,WUHU216HW,2013-01-11 05:32:00,
2013-01-10 21:37:00,43.2,34.8,30.17,SE,135,1.1,1.1,72,0.00,,,0.00,WUHU216HW,2013-01-11 05:37:00,
2013-01-10 21:42:00,43.0,34.7,30.17,ESE,113,1.1,1.1,72,0.00,,,0.00,WUHU216HW,2013-01-11 05:42:00,
2013-01-10 21:47:00,42.8,34.8,30.17,ENE,68,0.2,1.1,73,0.00,,,0.00,WUHU216HW,2013-01-11 05:47:00,
2013-01-10 21:52:00,42.8,34.8,30.17,SSE,158,0.4,1.1,73,0.00,,,0.00,WUHU216HW,2013-01-11 05:52:00,
2013-01-10 21:57:00,42.7,34.7,30.18,SSW,203,0.4,0.7,73,0.00,,,0.00,WUHU216HW,2013-01-11 05:57:00,
2013-01-10 22:02:00,42.7,34.7,30.18,SSW,203,0.2,0.4,73,0.00,,,0.00,WUHU216HW,2013-01-11 06:02:00,
2013-01-10 22:07:00,42.5,34.5,30.18,NNW,338,0.9,0.9,73,0.00,,,0.00,WUHU216HW,2013-01-11 06:07:00,
2013-01-10 22:12:00,42.5,34.5,30.18,NW,315,1.8,1.8,73,0.00,,,0.00,WUHU216HW,2013-01-11 06:12:00,
2013-01-10 22:17:00,42.1,34.1,30.18,South,180,0.0,1.8,73,0.00,,,0.00,WUHU216HW,2013-01-11 06:17:00,
2013-01-10 22:22:00,42.1,34.1,30.18,SSE,158,0.7,1.1,73,0.00,,,0.00,WUHU216HW,2013-01-11 06:22:00,
2013-01-10 22:27:00,42.1,34.4,30.19,SSW,203,0.0,1.1,74,0.00,,,0.00,WUHU216HW,2013-01-11 06:27:00,
2013-01-10 22:32:00,42.1,34.4,30.18,SE,135,1.8,2.5,74,0.00,,,0.00,WUHU216HW,2013-01-11 06:32:00,
2013-01-10 22:37:00,41.9,34.2,30.18,SSW,203,0.0,2.5,74,0.00,,,0.00,WUHU216HW,2013-01-11 06:37:00,
2013-01-10 22:42:00,41.9,34.2,30.18,SW,225,0.4,1.3,74,0.00,,,0.00,WUHU216HW,2013-01-11 06:42:00,
2013-01-10 22:47:00,41.9,34.2,30.18,West,270,0.4,0.4,74,0.00,,,0.00,WUHU216HW,2013-01-11 06:47:00,
2013-01-10 22:52:00,41.8,34.0,30.18,WSW,248,1.1,1.1,74,0.00,,,0.00,WUHU216HW,2013-01-11 06:52:00,
2013-01-10 22:57:00,41.8,34.0,30.18,SSW,203,0.2,1.1,74,0.00,,,0.00,WUHU216HW,2013-01-11 06:57:00,
2013-01-10 23:02:00,41.8,34.0,30.18,ESE,113,1.6,1.6,74,0.00,,,0.00,WUHU216HW,2013-01-11 07:02:00,
2013-01-10 23:07:00,41.4,33.7,30.18,East,90,1.6,1.6,74,0.00,,,0.00,WUHU216HW,2013-01-11 07:07:00,
2013-01-10 23:12:00,41.4,33.7,30.18,East,90,0.7,1.8,74,0.00,,,0.00,WUHU216HW,2013-01-11 07:12:00,
2013-01-10 23:17:00,41.2,33.5,30.18,ESE,113,1.1,1.8,74,0.00,,,0.00,WUHU216HW,2013-01-11 07:17:00,
2013-01-10 23:22:00,41.0,33.3,30.18,East,90,0.9,2.0,74,0.00,,,0.00,WUHU216HW,2013-01-11 07:22:00,
2013-01-10 23:27:00,40.9,33.1,30.18,SE,135,1.1,2.0,74,0.00,,,0.00,WUHU216HW,2013-01-11 07:27:00,
2013-01-10 23:32:00,40.9,33.1,30.18,ESE,113,0.4,1.1,74,0.00,,,0.00,WUHU216HW,2013-01-11 07:32:00,
2013-01-10 23:37:00,40.7,33.3,30.18,ESE,113,0.7,0.9,75,0.00,,,0.00,WUHU216HW,2013-01-11 07:37:00,
2013-01-10 23:42:00,40.5,33.1,30.18,East,90,0.0,1.3,75,0.00,,,0.00,WUHU216HW,2013-01-11 07:42:00,
2013-01-10 23:47:00,40.3,32.9,30.18,East,90,1.6,1.6,75,0.00,,,0.00,WUHU216HW,2013-01-11 07:47:00,
2013-01-10 23:52:00,40.3,32.9,30.18,ESE,113,1.1,2.0,75,0.00,,,0.00,WUHU216HW,2013-01-11 07:52:00,
2013-01-10 23:57:00,40.1,32.8,30.18,ENE,68,0.9,2.0,75,0.00,,,0.00,WUHU216HW,2013-01-11 07:57:00,